Location: Golders Green
(51.5667°N, 0.2167°W)
Time: 08:48:14
(UTC+00:00)

Daily predictions for brighter satellites

Satellite Brightness Start Highest point End
(mag) Time Altitude Azimuth Time Altitude Azimuth Time Altitude Azimuth
Cosmos 1758 3.4 17:30:10 10° S 17:34:09 85° WNW 17:38:08 10° N
CZ-4C R/B 4.1 17:27:25 10° NW 17:34:15 49° WSW 17:41:58 10° SSE
FengYun 1-2 T 4.4 17:28:54 10° SE 17:34:22 53° ENE 17:39:47 10° N
Unknown 3.7 17:30:29 10° WSW 17:34:37 69° SSE 17:38:45 10° ENE
BREEZE-M DEB (TANK) 3.5 17:30:41 10° W 17:34:39 78° SSW 17:43:33 10° ESE
Lacrosse 5 2.2 17:31:14 10° WNW 17:36:14 55° NNE 17:41:12 10° E
Cosmos 1821 Rocket 4.0 17:31:03 10° N 17:37:12 79° E 17:43:21 10° SSE
COSMO-SKYMED 1 3.3 17:33:20 10° NNE 17:37:14 31° E 17:41:07 10° SSE
Cosmos 1605 Rocket 4.4 17:31:37 10° N 17:37:26 39° ENE 17:43:07 10° SE
Cosmos 968 Rocket 4.1 17:32:40 10° NNW 17:37:55 65° WSW 17:43:07 10° S
Unknown 3.7 17:33:47 10° WSW 17:37:55 71° SSE 17:42:04 10° ENE
Unknown 3.7 17:34:07 10° WSW 17:38:13 70° SSE 17:42:22 10° ENE
Unknown 3.7 17:35:21 10° WSW 17:39:29 71° SSE 17:43:37 10° ENE
Cosmos 1908 4.5 17:39:14 10° SE 17:42:11 21° E 17:45:09 10° NE
Unknown 3.7 17:38:28 10° WSW 17:42:36 71° SSE 17:46:45 10° ENE
Cosmos 1825 Rocket 3.8 17:39:29 10° NNW 17:43:53 76° W 17:48:16 10° S
Unknown 3.7 17:41:58 10° WSW 17:46:06 75° SSE 17:50:11 10° ENE
Cosmos 1934 Rocket 4.1 17:40:08 10° N 17:46:26 63° ENE 17:52:44 10° SSE
ATLAS 5 CENTAUR R/B 1.7 17:42:16 10° SW 17:46:37 85° NW 17:51:37 10° NE
Cosmos 2278 Rocket 3.3 17:42:22 10° SSE 17:46:39 22° ESE 17:50:55 10° NE
Cosmos 724 4.5 17:40:41 10° SW 17:46:49 85° NW 17:52:53 10° NE
Cosmos 1953 Rocket 3.5 17:42:43 10° N 17:47:08 82° E 17:51:29 10° SSE
Unknown 3.2 17:43:49 10° WNW 17:47:20 71° N 17:50:40 11° E
Unknown 3.7 17:43:36 10° WSW 17:47:44 76° SSE 17:51:45 11° ENE
Unknown 3.6 17:45:16 10° WSW 17:49:25 77° SSE 17:53:23 11° ENE
Nadezhda 3 Rocket 4.0 17:44:36 10° S 17:50:54 81° E 17:57:17 10° NNE
Unknown 3.6 17:46:56 10° WSW 17:51:05 78° SSE 17:54:59 12° ENE
Lacrosse 5 rocket 3.5 17:48:12 10° W 17:51:16 24° SW 17:54:26 10° S
Cosmos 1844 3.8 17:45:54 10° SSW 17:51:33 65° ESE 17:57:18 10° NE
NOAA 12 4.3 17:46:53 10° SSE 17:52:11 80° WSW 17:57:32 10° NNW
Cosmos 1535 Rocket 4.5 17:47:00 10° N 17:53:15 70° ENE 17:59:22 10° SSE
Unknown 3.6 17:50:17 10° WSW 17:54:26 81° SSE 17:58:12 12° ENE
Cosmos 1470 3.7 17:51:02 10° SSW 17:54:56 53° WNW 17:58:51 10° N
Ariane Rocket 3.7 17:51:08 10° ESE 17:55:37 32° ENE 18:00:08 10° N
Unknown 3.6 17:52:00 10° WSW 17:56:09 82° SSE 17:59:51 13° ENE
Unknown 3.6 17:53:35 10° WSW 17:57:44 83° SSE 18:01:22 13° ENE
Unknown 3.6 17:55:14 10° WSW 17:59:22 83° SSE 18:02:57 14° ENE
Abrixas rocket 4.4 17:58:30 10° SSE 17:59:38 12° SSE 18:00:46 10° SE
Unknown 3.6 17:55:33 10° WSW 17:59:43 84° SSE 18:03:16 14° ENE
Cosmos 1939 Rocket 3.7 17:56:53 10° SE 18:00:26 31° ENE 18:04:01 10° N
Cosmos 1461 3.1 17:56:36 10° NW 18:00:33 49° NE 18:04:27 11° ESE
COBE Rocket 4.0 17:55:46 10° NNE 18:00:58 69° E 18:06:02 10° S
Cosmos 1992 Rocket 4.0 17:56:04 10° SSW 18:01:18 90° WNW 18:06:34 10° NNE
Cosmos 1328 3.7 17:57:29 10° N 18:01:30 67° ENE 18:05:25 10° SSE
Cosmos 1606 Rocket 3.6 17:57:35 10° S 18:01:58 87° W 18:06:21 10° N
Cosmos 1242 Rocket 2.5 17:58:35 10° NNW 18:02:19 83° ENE 18:05:59 10° SSE
Unknown 3.6 17:58:22 10° WSW 18:02:32 83° SSE 18:05:58 15° ENE
Unknown 3.6 18:01:45 10° WSW 18:05:55 85° SSE 18:09:13 16° ENE
CSL-04 Rocket 3.7 18:02:02 10° SSE 18:07:33 73° ENE 18:13:01 10° NNW
Unknown 3.6 18:03:24 10° WSW 18:07:33 86° SSE 18:10:48 16° ENE
Cosmos 2084 Rocket 4.2 18:03:51 10° NW 18:08:02 38° NNE 18:11:03 17° E
Cosmos 1726 2.1 18:05:52 10° S 18:09:26 54° E 18:13:01 10° NNE
Unknown 3.6 18:05:17 10° WSW 18:09:27 90° SSE 18:12:37 17° ENE
Cosmos 2263 Rocket 4.0 18:04:42 10° W 18:09:33 28° NW 18:14:25 10° NNE
Unknown 3.6 18:06:36 10° WNW 18:09:37 49° SSW 18:12:18 13° SE
Unknown 3.6 18:06:40 10° WSW 18:10:49 88° SSE 18:13:56 17° ENE
Cosmos 1777 Rocket 3.9 18:07:11 10° NNW 18:12:27 77° ENE 18:17:38 10° SSE
Unknown 3.6 18:08:20 10° WSW 18:12:29 89° SSE 18:15:32 18° ENE
HJ-1C 4.4 18:14:01 18° ESE 18:15:40 26° ENE 18:18:32 10° N
Unknown 3.6 18:11:43 10° WSW 18:15:52 89° NNW 18:18:48 19° ENE
Unknown 3.6 18:13:23 10° WSW 18:17:32 89° NNW 18:20:24 20° ENE
NOAA 11 4.3 18:12:32 10° SE 18:17:49 55° ENE 18:23:08 10° N
ATLAS CENTAUR R/B 3.7 18:15:32 10° NW 18:18:33 16° N 18:21:27 10° NE
Unknown 3.6 18:15:03 10° WSW 18:19:13 88° N 18:22:00 20° ENE
Unknown 3.6 18:16:43 10° WSW 18:20:52 87° NNW 18:23:35 21° ENE
Cosmos 1812 Rocket 4.4 18:17:44 10° SSE 18:21:30 28° E 18:25:18 10° NNE
ARGOS 4.4 18:19:44 18° E 18:21:47 22° NE 18:25:49 10° N
Cosmos 1833 Rocket 2.6 18:16:46 10° NNW 18:22:24 70° ENE 18:28:00 10° SE
Unknown 3.4 18:19:54 10° W 18:23:38 69° N 18:25:43 25° E
Cosmos 1076 Rocket 4.1 18:19:49 10° N 18:23:51 35° ENE 18:27:00 15° SE
Unknown 3.6 18:20:02 10° WSW 18:24:11 85° NNW 18:26:46 22° ENE
CZ-4 R/B 1.9 18:21:08 10° S 18:25:18 66° WSW 18:29:32 10° NNW
SKYMED 2 3.5 18:21:05 10° NNE 18:25:28 88° ESE 18:29:49 10° SSW
Unknown 3.6 18:21:25 10° WSW 18:25:34 84° NNW 18:28:06 23° ENE
BREEZE-M DEB (TANK) 4.1 18:16:53 10° SW 18:25:45 29° SSE 18:27:59 19° ESE
Unknown 3.6 18:21:57 10° W 18:26:07 81° N 18:28:37 23° ENE
Unknown 3.6 18:23:36 10° W 18:27:46 81° NNW 18:30:12 24° ENE
CZ-2D R/B 3.2 18:25:48 10° SSE 18:29:36 64° ENE 18:33:28 10° N
Unknown 3.6 18:26:42 10° W 18:30:52 82° N 18:33:10 25° ENE
YAOGAN 1 2.8 18:27:00 10° S 18:31:19 75° WSW 18:35:40 10° NNW
Cosmos 489 Rocket 4.4 18:27:12 10° SSW 18:33:22 72° ESE 18:39:34 10° NNE
Cosmos 1153 Rocket 4.4 18:27:25 10° N 18:33:33 62° ENE 18:39:36 10° SSE
Unknown 3.6 18:30:02 10° W 18:34:11 81° NNW 18:36:21 27° ENE
Unknown 3.6 18:31:01 10° W 18:35:08 78° N 18:37:13 28° ENE
Unknown 3.6 18:31:43 10° W 18:35:52 80° N 18:37:59 28° ENE
H-2A R/B 3.0 18:35:44 24° E 18:37:30 28° ENE 18:42:04 10° N
Unknown 3.6 18:33:21 10° W 18:37:30 80° N 18:39:33 29° ENE
Unknown 3.6 18:33:30 10° W 18:37:33 74° N 18:39:29 30° ENE
Unknown 3.6 18:35:02 10° W 18:39:11 79° N 18:41:10 30° ENE
Meteor 2-10 3.9 18:34:42 10° SSW 18:39:46 86° WNW 18:44:51 10° NNE
Unknown 3.5 18:37:57 10° W 18:41:47 69° N 18:43:14 35° ENE
BREEZE-M DEB (TANK) 3.9 18:39:40 10° SSW 18:42:35 20° SSE 18:42:39 20° SSE
Shenzhou-11 Module 4.3 18:42:17 10° SW 18:43:42 13° S 18:44:07 13° S
YAOGAN 6 4.1 18:41:11 10° SSW 18:44:38 39° W 18:48:05 10° NNW
Cosmos 2228 4.5 18:40:38 10° SW 18:44:45 40° WNW 18:48:52 10° N
ADEOS Rocket 4.2 18:38:42 10° NNE 18:45:15 29° E 18:51:27 10° SE
Unknown 3.6 18:41:37 10° W 18:45:47 77° N 18:47:29 34° ENE
Cosmos 1703 4.4 18:42:04 10° NNW 18:45:52 46° W 18:49:38 10° SSW
Cosmos 2082 Rocket 2.1 18:40:58 10° NNW 18:46:43 75° ENE 18:51:05 18° SE
Unknown 3.6 18:43:22 10° W 18:47:31 76° N 18:49:09 36° ENE
Unknown 3.6 18:45:00 10° W 18:49:09 76° N 18:50:43 37° ENE
ASTEX 1 4.2 18:44:58 10° N 18:49:47 53° WNW 18:54:37 10° SSW
Unknown 3.6 18:46:41 10° W 18:50:50 75° N 18:52:20 38° ENE
Unknown 3.5 18:48:15 10° W 18:52:09 70° N 18:53:16 43° ENE
Unknown 3.6 18:48:19 10° W 18:52:28 75° N 18:53:54 39° ENE
FALCON 9 DEB 3.2 18:49:27 10° WNW 18:52:56 70° SSW 18:53:41 49° SE
Cosmos 921 Rocket 4.2 18:50:04 10° SW 18:54:24 46° WNW 18:58:43 10° NNE
Unknown 3.3 18:51:01 10° WNW 18:54:24 62° SSW 18:55:05 48° SSE
Cosmos 2084 4.4 18:50:07 10° WSW 18:54:29 47° NW 18:57:42 17° NE
Cosmos 2151 4.2 18:50:55 10° N 18:53:49 26° NE 18:53:49 26° NE
Cosmos 1898 Rocket 3.9 18:50:08 10° NNW 18:55:11 43° ENE 18:56:42 35° E
Gbstr 26 Del rocket 4.4 18:49:15 10° WNW 18:55:14 63° SSW 18:59:47 23° SE
Unknown 3.6 18:51:41 10° W 18:55:50 74° N 18:57:08 42° ENE
Starlink (trailer) 3.6 18:53:19 10° W 18:57:28 74° N 18:58:42 44° ENE
Cosmos 292 Rocket 4.0 18:54:03 10° SSW 18:58:47 68° WNW 19:03:33 10° NNE
Unknown 3.6 18:55:00 10° W 18:59:08 74° N 19:00:17 45° ENE
Unknown 3.7 18:56:36 10° W 19:00:45 73° N 19:01:50 47° ENE
Cosmos 2058 3.0 18:56:36 10° N 19:00:46 56° ENE 19:01:37 46° ESE
Cosmos 2058 Rocket 4.3 18:57:02 10° SW 19:01:11 43° WNW 19:05:22 10° N
Cosmos 2061 Rocket 4.2 18:55:35 10° N 19:01:37 46° ENE 19:04:10 31° ESE
Unknown 3.2 18:58:27 10° WNW 19:01:58 70° SSW 19:02:22 62° SSE
SJ-6B 3.6 19:03:36 34° NE 19:03:36 34° NE 19:06:18 10° N
ATLAS 3B R/B 4.4 19:00:23 10° SSE 19:01:17 13° SSE 19:01:17 13° SSE
Cosmos 1844 Rocket 4.1 19:01:09 10° WSW 19:06:23 38° NW 19:11:37 10° NNE
Unknown 3.7 19:02:59 10° W 19:07:08 72° N 19:07:57 54° ENE
Unknown 3.7 19:03:18 10° W 19:07:28 72° N 19:08:16 54° ENE
USA 116 4.3 19:04:41 10° N 19:07:42 44° WNW 19:10:51 10° SW
DMSP B5D1-3 4.5 19:02:38 10° NNE 19:07:48 89° WNW 19:12:57 10° SSW
Unknown 3.7 19:03:56 10° W 19:08:06 72° N 19:08:52 55° ENE
Falcon 9 debris 3.5 19:07:50 10° WNW 19:11:14 53° SSW 19:11:19 53° SSW
Unknown 3.6 19:07:47 10° W 19:11:56 72° N 19:12:34 59° NE
Unknown 3.6 19:08:20 10° W 19:12:29 72° N 19:13:06 60° NE
CZ-2C R/B 3.9 19:12:02 36° ENE 19:12:30 37° ENE 19:17:44 10° N
COSMO-SKYMED 1 4.3 19:09:28 10° N 19:13:25 34° WNW 19:17:21 10° SW
In-Cosmos 22 Rocket 4.0 19:08:08 10° N 19:13:31 66° ENE 19:15:45 35° SE
Unknown 3.6 19:10:07 10° W 19:14:16 71° N 19:14:48 62° NE
Unknown 3.6 19:13:26 10° W 19:17:35 71° N 19:17:58 65° NE
Unknown 3.6 19:13:44 10° W 19:17:53 71° N 19:18:16 66° NE
SJ 16-02 2.1 19:13:58 10° NNW 19:17:24 37° NE 19:17:24 37° NE
Cosmos 1459 Rocket 3.9 19:12:04 10° N 19:18:18 76° ENE 19:23:02 19° SSE
Unknown 3.6 19:15:00 10° W 19:19:09 71° N 19:19:29 67° NE
Lacrosse 5 2.2 19:14:20 10° WNW 19:19:19 60° SW 19:20:56 40° SSE
Unknown 3.6 19:18:07 10° W 19:22:16 71° N 19:22:28 69° NNE
Unknown 4.0 19:21:06 10° WNW 19:24:07 47° SW 19:24:07 47° SW
Unknown 3.6 19:21:38 10° W 19:25:47 71° N 19:25:50 71° N
Unknown 3.7 19:23:17 10° W 19:27:24 71° N 19:27:24 71° N
Unknown 3.7 19:24:58 10° W 19:29:01 71° N 19:29:01 71° N
Cosmos 2278 Rocket 2.3 19:24:27 10° SW 19:30:08 75° WNW 19:35:52 10° NNE
MOS 1 4.4 19:25:42 15° S 19:30:27 74° WSW 19:36:08 10° NNW
Unknown 3.7 19:26:38 10° W 19:30:37 70° NNW 19:30:37 70° NNW
Resurs 01 Rocket 3.2 19:32:44 24° NNE 19:32:44 24° NNE 19:34:56 10° N
USA 238 DEB 3.6 19:24:21 10° SSW 19:30:59 65° SE 19:33:52 36° ENE
USA 238 3.6 19:24:28 10° SSW 19:31:05 65° SE 19:33:55 37° ENE
ATLAS 5 CENTAUR R/B 3.5 19:27:56 10° W 19:31:59 28° NNW 19:34:46 18° NNE
Unknown 3.8 19:30:00 10° W 19:33:51 67° NNW 19:33:51 67° NNW
Cosmos 1766 Rocket 4.3 19:30:02 10° N 19:32:56 39° NNE 19:32:56 39° NNE
Ariane Rocket 4.0 19:29:34 10° S 19:34:27 45° W 19:39:23 10° NNW
Okean 3 Rocket 3.6 19:29:56 10° N 19:34:09 72° NNE 19:34:09 72° NNE
Cosmos 1727 Rocket 4.2 19:29:36 10° SSW 19:35:45 68° WNW 19:41:56 10° N
Unknown 3.9 19:31:43 10° W 19:35:30 66° NW 19:35:30 66° NW
Unknown 3.9 19:33:18 10° W 19:37:01 64° NW 19:37:01 64° NW
Unknown 4.0 19:34:57 10° W 19:38:36 62° NW 19:38:36 62° NW
Unknown 4.0 19:35:17 10° W 19:38:55 62° NW 19:38:55 62° NW
Unknown 4.1 19:38:06 10° W 19:41:37 59° NW 19:41:37 59° NW
Cosmos 1802 Rocket 4.0 19:36:09 10° N 19:42:38 88° W 19:45:54 32° S
Cosmos 2173 Rocket 4.1 19:36:36 10° NNW 19:42:53 76° W 19:47:19 20° S
Unknown 4.2 19:41:29 10° W 19:44:52 55° WNW 19:44:52 55° WNW
Cosmos 1864 Rocket 4.3 19:40:49 10° N 19:46:58 71° ENE 19:47:35 66° ESE
Unknown 4.3 19:43:08 10° W 19:46:27 53° WNW 19:46:27 53° WNW
Cosmos 2084 Rocket 4.1 19:43:23 10° NW 19:47:36 51° WSW 19:47:36 51° WSW
Unknown 4.4 19:45:02 10° W 19:48:16 51° WNW 19:48:16 51° WNW
Unknown 4.4 19:46:24 10° W 19:49:35 50° WNW 19:49:35 50° WNW
Cosmos 858 Rocket 4.4 19:46:01 10° NNW 19:50:57 79° N 19:50:57 79° N
Cosmos 1937 Rocket 3.4 19:46:35 10° NNW 19:51:20 73° N 19:51:20 73° N
Cosmos 2123 Rocket 4.3 19:56:11 50° NE 19:56:11 50° NE 20:01:01 10° NNE
NOSS 3-2 (A) 3.3 19:50:07 10° SW 19:55:59 75° SE 19:56:02 75° SE
Cosmos 990 Rocket 4.0 19:52:00 10° NNW 19:57:13 75° WSW 19:57:16 75° WSW
ATLAS CENTAUR R/B 3.4 19:55:03 10° NNW 19:57:49 24° N 19:57:49 24° N
SPOT 3 Rocket 3.8 19:58:35 59° SSW 19:59:18 66° WSW 20:04:31 10° NNW
ARGOS 3.1 20:01:16 78° SW 20:01:28 79° WSW 20:06:57 10° NNW
Cosmos 1725 Rocket 3.9 19:56:08 10° N 20:02:27 88° E 20:03:03 75° SSE
Cosmos 2233 Rocket 4.2 19:58:56 10° N 20:04:19 58° NE 20:04:19 58° NE
H-2A R/B 2.6 20:16:22 57° WSW 20:16:36 57° W 20:21:58 10° NNW
Cosmos 2227 Rocket 4.4 20:25:04 10° N 20:27:46 14° NNE 20:27:46 14° NNE
Cosmos 2082 Rocket 4.2 20:25:54 10° NW 20:30:14 23° WSW 20:32:59 16° SW
ADEOS Rocket 3.6 20:23:40 10° NNE 20:31:28 77° WNW 20:38:45 10° SSW
Cosmos 2297 Rocket 4.4 20:30:22 10° N 20:32:56 15° NNE 20:32:56 15° NNE
CZ-2C R/B 4.3 20:53:07 45° WNW 20:53:07 45° WNW 20:57:51 10° NNW
SJ 16-02 3.9 20:52:50 10° NW 20:54:25 19° WNW 20:54:25 19° WNW
Lacrosse 5 4.4 20:58:39 10° W 21:00:09 14° WSW 21:00:09 14° WSW
Resurs 01 Rocket 4.4 21:10:18 16° NW 21:10:18 16° NW 21:11:24 10° NNW
Cosmos 2278 Rocket 4.4 21:10:53 10° W 21:15:13 22° NW 21:19:02 12° N
ATLAS 5 CENTAUR R/B 4.3 21:14:10 10° NW 21:16:18 19° NNW 21:16:18 19° NNW
